Regional Weather Roundup
Issued by NWS Cleveland, OH

Home | Current Version | Previous Version | Text Only | Print | Product List | Glossary Off
Versions: 1 2 3 4 5 6 7 8 9 10 11 12 13 14 15 16 17 18 19 20 21 22 23 24 25 26 27 28 29 30 31 32 33 34 35 36 37 38 39 40 41 42 43 44 45 46 47 48 49 50

000
ASUS41 KCLE 141302
RWRCLE
OHIO REGIONAL WEATHER ROUNDUP
NATIONAL WEATHER SERVICE CLEVELAND, OH
800 AM EST THU DEC 14 2017

NOTE: "FAIR" INDICATES FEW OR NO CLOUDS BELOW 12,000 FEET WITH NO
SIGNIFICANT WEATHER AND/OR OBSTRUCTIONS TO VISIBILITY.

OHZ001>008-015>018-024>027-034-035-043-044-141400-
   NORTHWEST OHIO

CITY           SKY/WX    TMP DP  RH WIND       PRES   REMARKS
DEFIANCE       CLOUDY     9   5  84 W3        29.97R
FINDLAY        CLOUDY    17  11  77 NW7       29.94R WCI   8
TOLEDO EXPRESS CLOUDY    13  10  88 NW7       29.94R WCI   3
TOLEDO EXEC    CLEAR     13   8  81 NW9       29.95R WCI   1
LIMA           CLOUDY    18  15  88 NW9       29.94R WCI   7
$$

OHZ009>014-019>023-028>033-038-089-141400-
   NORTHEAST OHIO

CITY           SKY/WX    TMP DP  RH WIND       PRES   REMARKS
CLE-HOPKINS    MOCLDY    24  14  65 NW16      29.90R WCI  11
CLE-LAKEFRONT  CLOUDY    25  14  63 NW15G22   29.87R WCI  13
CUY CO. ARPT   MOCLDY    25  19  80 N15       29.86R WCI  12
LORAIN-ELYRIA  MOCLDY    20  10  65 N7        29.89R WCI  11
ASHTABULA      CLEAR     18  12  77 N5        29.84R WCI  11
AKRON-CANTON   LGT SNOW  24  18  77 N9        29.82R WCI  14
WOOSTER        MOCLDY    18  13  80 NW8       29.86R WCI   8
MANSFIELD      FLURRIES  20  17  88 N7        29.86R WCI  11
YOUNGSTOWN     LGT SNOW  20  15  81 N12       29.80R WCI   8
$$

OHZ042-051>053-060>062-070>072-077>081-141400-
  SOUTHWEST OHIO

CITY           SKY/WX    TMP DP  RH WIND       PRES   REMARKS
CINC-COVINGTON CLOUDY    25  17  72 N13       29.93R WCI  14
CINC-LUNKEN    MOCLDY    27  18  69 N10       29.98R WCI  17
HAMILTON       CLOUDY    26  18  71 N8        29.97R WCI  18
DAYTON         CLOUDY    21  17  84 N10       29.96R WCI  10
WRIGHT-PAT AFB CLOUDY    22  16  76 N10       29.95R WCI  11
DAYTON GENERAL CLOUDY    22  16  78 N9        29.93R WCI  12
WILMINGTON     CLOUDY    22  17  81 N10       29.92R WCI  11
$$

OHZ036-037-039>041-045>050-054>059-063>069-073>076-082>088-141400-
  CENTRAL AND SOUTHEAST OHIO

CITY           SKY/WX    TMP DP  RH WIND       PRES   REMARKS
COLUMBUS       FLURRIES  24  17  74 N9        29.92R WCI  14
OSU AIRPORT    CLOUDY    22  17  81 NW8       29.92R WCI  12
BOLTON FIELD   CLOUDY    21  18  86 NW7       29.93R WCI  13
RICKENBACK AFB CLOUDY    23  17  77 N8        29.93R WCI  13
NEWARK         CLOUDY    24  18  77 NW6       29.90R WCI  17
MARION         NOT AVBL
LANCASTER      CLOUDY    23  17  78 N9        29.91R WCI  13
ZANESVILLE     CLOUDY    26  19  74 W10       29.87R WCI  16
NEW PHILLY     NOT AVBL
$$




USA.gov is the U.S. government's official web portal to all federal, state and local government web resources and services.